Regional Weather Roundup
Issued by NWS

Home | Current Version | Previous Version | Graphics & Text | Print | Product List | Glossary On
Versions: 1 2 3 4 5 6 7 8 9 10 11 12 13 14 15 16 17 18 19 20 21 22 23 24 25 26 27 28 29 30 31 32 33 34 35 36 37 38 39 40 41 42 43 44 45 46 47 48 49 50
887
ASUS45 KSLC 271210
RWRUT

UTAH REGIONAL WEATHER ROUNDUP
NATIONAL WEATHER SERVICE SALT LAKE CITY UT
600 AM MDT THU APR 27 2017

UTZ001>011-023>025-271300-

NORTHERN UTAH

CITY           SKY/WX    TMP DP  RH WIND       PRES   REMARKS
BRIGHAM CITY   PTCLDY    41  24  51 NW13G20   29.79S
HILL AFB       MOCLDY    39  30  70 W6        29.79R WCI  34
LOGAN          MOCLDY    40  30  67 W13       29.77R WCI  32
OGDEN          CLOUDY    39  29  67 NW10      29.79R WCI  32
SALT LAKE CITY MOCLDY    43  31  62 NW18      29.80R
TOOELE VALLEY  PTCLDY    37  32  81 NW16G26   29.84S WCI  28
WENDOVER       CLEAR     42  21  43 N13G18    29.84R
HEBER CITY     CLOUDY    37  32  81 CALM      29.74S
WEST JORDAN    PTCLDY    43  37  78 N7        29.82R

$$

UTZ011>015-024>027-271300-

CENTRAL/NORTHEAST UTAH

CITY           SKY/WX    TMP DP  RH WIND       PRES   REMARKS
PROVO AIRPORT  PTCLDY    43  35  73 N13       29.79F
MOAB/CANYONLAN MOCLDY    48  38  68 W7        29.66R
DELTA          CLOUDY    41  32  70 N8        29.82R
PRICE          PTCLDY    38  31  76 NW14      29.70R WCI  30
RICHFIELD      MOCLDY    43  39  87 NW6       29.82R
ROOSEVELT      CLOUDY    37  34  87 W7        29.67S WCI  32
VERNAL         CLOUDY    42  39  89 CALM      29.64F

$$

UTZ013>016-019>022-027-271300-

SOUTHERN UTAH

CITY           SKY/WX    TMP DP  RH WIND       PRES   REMARKS
BRYCE CANYON   PTCLDY    38  33  82 W12       29.80S WCI  30
CEDAR CITY     MOCLDY    39  35  86 S6        29.79R WCI  35
MILFORD        MOCLDY    44  39  82 N10       29.79S
ST GEORGE      PTSUNNY   62  37  39 NW13      29.72R
HANKSVILLE     CLOUDY    50  34  53 W9        29.71S
KANAB          CLEAR     54  32  43 NW10      29.79R
BLANDING       CLOUDY    44  42  95 SW3       29.78S

$$

REGIONAL REPORTS     COLORADO/ARIZONA

CITY           SKY/WX    TMP DP  RH WIND       PRES   REMARKS
CRAIG, CO      LGT RAIN  39  35  86 CALM      29.63S
GRAND JUNCTION MOCLDY    43  42  97 SE7       29.65S
RIFLE, CO      CLOUDY    40  39  97 CALM      29.66S
MONTROSE, CO   LGT RAIN  41  34  76 NW15      29.70R
CORTEZ, CO     LGT RAIN  43  42  97 NE5       29.72F
COLORADO CITY    N/A     46  36  66 NW5       29.79R
PAGE, AZ       MOCLDY    57  38  48 NW8       29.70R
GRAND CANYON   PTCLDY    45  31  58 W7        29.82F
KINGMAN, AZ    MOCLDY    60  39  45 SW5       29.74R
FLAGSTAFF, AZ  PTCLDY    48  30  49 SW18G30   29.81S

$$

REGIONAL REPORTS    NEVADA/IDAHO/WYOMING

CITY           SKY/WX    TMP DP  RH WIND       PRES   REMARKS
LAS VEGAS, NV  MOCLDY    71  25  17 NW10G23   29.69R
ELY, NY        PTCLDY    33  30  88 W8        29.88F WCI  26
ELKO, NV       CLOUDY    35  27  72 CALM      29.89S
POCATELLO, ID  CLOUDY    36  34  92 SW22      29.73R WCI  25
BURLEY, ID     CLEAR     36  30  79 W22G31    29.78R WCI  25
FORT BRIDGER,    N/A     31  31 100 W13       29.70R WCI  21
EVANSTON, WY   CLOUDY    30  28  92 W13       29.72R WCI  20
ROCK SPRINGS,  CLOUDY    33  31  92 W13       29.64R WCI  24
KEMMERER, WY     N/A     28  27  93 W28       29.67R WCI  13

$$




USA.gov is the U.S. government's official web portal to all federal, state and local government web resources and services.